[[{"header":{"parameterUnit":"m.s-1","parameterCategory":1,"la1":30.2991,"la2":30.254,"lo1":-89.0895,"lo2":-89.0444,"dy":0.0017,"dx":0.0017,"nx":28,"ny":28,"refTime":"2025-01-15T09:00:00:Z","depth":0,"parameterNumber":2,"parameterNumberName":"U-component_of_WINDS"},"data":[0,0,0,0,0,0,0,0,0,0,0,0,0,0,0,0,0,0,0,0,0,0,0,0,0,0,0,0,0,0,0,0,0,0,0,0,0,0,0,0,0,0,0,0,0,0,0,0,0,0,0,0,0,0,0,0,0,0,-3.0346,-3.0347,0,-3.0369,-3.0369,-3.0369,-3.024,-3.0236,-3.0233,-3.0229,-3.0258,-3.0262,-3.0267,0,0,0,0,0,0,0,0,0,0,0,0,0,-3.0199,-3.0202,-3.0346,-3.0347,-3.0347,-3.0369,-3.0369,-3.0369,-3.0241,-3.0236,-3.0232,-3.0228,-3.0257,-3.0262,-3.0267,0,0,0,0,0,0,0,0,0,0,0,0,0,-3.0246,-3.0203,-3.0346,-3.0285,-3.028,-3.0369,-3.0369,-3.0369,-3.0242,-3.0236,-3.0231,-3.0225,-3.0255,-3.0261,-3.0268,-3.0418,0,0,-3.0287,-3.029,0,0,0,0,0,0,0,0,-3.0244,-3.0252,-3.0294,-3.029,-3.0284,-3.0296,-3.0327,-3.0386,-3.0243,-3.0257,-3.0229,-3.0223,-3.0276,-3.028,-3.0297,-3.0419,-3.0421,-3.0288,-3.0291,-3.0294,-3.0296,0,0,0,0,0,0,0,-3.0241,-3.025,-3.0355,-3.0295,-3.0289,-3.0259,-3.0259,-3.0338,-3.0297,-3.0255,-3.0246,-3.025,-3.0272,-3.0291,-3.0296,-3.0421,-3.0287,-3.0293,-3.0297,-3.0299,-3.0671,-3.0677,0,0,0,0,0,0,-3.0245,-3.0248,-3.0355,-3.0356,-3.025,-3.0266,-3.0267,-3.0298,-3.0296,-3.029,-3.0254,-3.0244,-3.0283,-3.0289,-3.0297,-3.0475,-3.0294,-3.03,-3.0304,-3.0665,-3.0673,-3.0679,0,0,0,0,0,0,-3.0242,-3.0255,-3.0354,-3.03,-3.031,-3.0274,-3.031,-3.0301,-3.032,-3.0295,-3.0288,-3.0281,-3.0279,-3.0288,-3.0389,-3.0474,-3.0303,-3.0309,-3.0658,-3.0667,-3.0676,-3.0831,0,0,0,0,0,0,-3.0238,-3.0255,-3.031,-3.0302,-3.0313,-3.0444,-3.0315,-3.0306,-3.033,-3.0316,-3.0318,-3.0313,-3.0275,-3.038,-3.0395,-3.048,-3.0314,-3.065,-3.0662,-3.0673,-3.0818,-3.0844,-3.0867,0,0,0,0,0,-3.0233,-3.0354,-3.0314,-3.0327,-3.0381,-3.0449,-3.0456,-3.0407,-3.0338,-3.0394,-3.0379,-3.0313,-3.0462,-3.0392,-3.0408,-3.0495,-3.0645,-3.0659,-3.0672,-3.0807,-3.0839,-3.0866,0,0,0,0,0,0,-3.0375,-3.0351,-3.0307,-3.0427,-3.0441,-3.0427,-3.0496,-3.0442,-3.0477,-3.0463,-3.0403,-3.0405,-3.0517,-3.0516,-3.0438,-3.0642,-3.0541,-3.0559,-3.0639,-3.0669,-3.0693,-3.0692,-3.0319,0,0,0,0,0,-3.042,-3.0475,-3.0452,-3.0561,-3.057,-3.0533,-3.056,-3.0522,-3.0534,-3.054,-3.0532,-3.0548,-3.0599,-3.0633,-3.0678,-3.0817,-3.0817,-3.0885,-3.0909,-3.0929,-3.0946,-3.1022,-3.1053,-3.0724,-3.0724,-3.0724,0,0,-3.0514,-3.0508,-3.0546,-3.0589,-3.0595,-3.0656,-3.0538,-3.0607,-3.0652,-3.0551,-3.0646,-3.0641,-3.0655,-3.0777,-3.083,-3.0779,-3.1036,-3.0947,-3.0963,-3.0968,-3.1039,-3.107,-3.1098,-3.0733,-3.0732,-3.073,0,0,-3.0716,-3.0716,-3.0808,-3.0816,-3.0826,-3.0801,-3.0823,-3.0818,-3.081,-3.0904,-3.083,-3.0884,-3.0971,-3.0985,-3.1004,-3.1214,-3.1157,-3.1231,-3.1358,-3.1433,-3.1459,-3.1482,-3.156,-3.1588,-3.1247,-3.1247,-3.1247,0,-3.0833,-3.0919,-3.0862,-3.0937,-3.0959,-3.0868,-3.0962,-3.0974,-3.0999,-3.1018,-3.096,-3.1069,-3.1072,-3.1197,-3.1249,-3.1266,-3.1292,-3.1231,-3.1459,-3.1482,-3.1502,-3.1576,-3.1605,-3.1256,-3.1255,-3.1254,-3.1253,0,-3.1063,-3.1125,-3.1198,-3.1223,-3.1253,-3.1338,-3.1296,-3.1334,-3.1293,-3.1275,-3.1374,-3.1374,-3.1419,-3.1445,-3.1406,-3.1566,-3.1534,-3.1469,-3.1367,-3.1544,-3.1612,-3.1639,-3.1269,-3.1266,-3.1263,-3.1261,0,0,-3.1356,-3.1349,-3.1377,-3.1389,-3.1394,-3.1442,-3.1523,-3.1564,-3.16,-3.1621,-3.1689,-3.1766,-3.1706,-3.1727,-3.169,-3.1755,-3.1925,-3.1682,-3.1681,-3.173,-3.2104,-3.2155,-3.2189,-3.1886,-3.1891,-3.1895,-3.2104,0,-3.1556,-3.1692,-3.1644,-3.1785,-3.1843,-3.1758,-3.1829,-3.1841,-3.1827,-3.1875,-3.1859,-3.1916,-3.1831,-3.1844,-3.1905,-3.1892,-3.2,-3.1875,-3.1953,-3.1956,-3.1954,-3.2224,-3.2277,-3.2474,-3.213,-3.2134,-3.2138,0,-3.1808,-3.1838,-3.1984,-3.1981,-3.2003,-3.2068,-3.2104,-3.215,-3.2164,-3.2148,-3.2173,-3.2122,-3.2204,-3.2101,-3.2216,-3.2132,-3.2161,-3.216,-3.2166,-3.2173,-3.2059,-3.2241,-3.2535,-3.2566,-3.2179,-3.2175,-3.2172,0,-3.201,-3.2087,-3.2185,-3.2197,-3.2195,-3.2243,-3.2245,-3.2252,-3.2282,-3.2314,-3.2333,-3.2374,-3.2398,-3.2433,-3.2396,-3.2324,-3.2517,-3.241,-3.251,-3.2511,-3.2556,-3.2554,-3.2862,-3.2571,-3.2571,-3.257,-3.2569,0,-3.224,-3.2334,-3.2276,-3.2337,-3.244,-3.2385,-3.2489,-3.2481,-3.2489,-3.2549,-3.2478,-3.2536,-3.2482,-3.2536,-3.2507,-3.2608,-3.2619,-3.2611,-3.2603,-3.2619,-3.2621,-3.2639,-3.2625,-3.2578,-3.2576,-3.2574,-3.2573,0,-3.2485,-3.2449,-3.2551,-3.2541,-3.254,-3.2617,-3.261,-3.2667,-3.2647,-3.2724,-3.2738,-3.2708,-3.2768,-3.2734,-3.2796,-3.2777,-3.2909,-3.288,-3.2904,-3.2898,-3.3,-3.2992,-3.3333,-3.3376,-3.3055,-3.3058,-3.306,0,-3.2635,-3.2705,-3.2702,-3.2736,-3.2742,-3.2798,-3.2827,-3.2776,-3.281,-3.2832,-3.2887,-3.294,-3.2981,-3.3081,-3.3067,-3.3114,-3.3088,-3.3204,-3.3095,-3.311,-3.3094,-3.3091,-3.3099,-3.3228,-3.3231,-3.3234,-3.3237,0,-3.2906,-3.2886,-3.2929,-3.2968,-3.3005,-3.3033,-3.3056,-3.3088,-3.3038,-3.308,-3.314,-3.3171,-3.3234,-3.3289,-3.333,-3.3334,-3.328,-3.3271,-3.3297,-3.3315,-3.3327,-3.3325,-3.2967,-3.3264,-3.3261,-3.3259,-3.3258,-3.3257,-3.311,-3.3169,-3.3177,-3.3229,-3.324,-3.3263,-3.3317,-3.3304,-3.3352,-3.3398,-3.3365,-3.3437,-3.3451,-3.35,-3.3512,-3.357,-3.3523,-3.356,-3.357,-3.3581,-3.3596,-3.3316,-3.3577,-3.3576,-3.3575,-3.3574,-3.3574,0,-3.338,-3.3381,-3.3429,-3.3463,-3.3505,-3.3446,-3.3468,-3.3508,-3.3571,-3.3588,-3.3629,-3.3699,-3.3753,-3.3743,-3.3792,-3.384,-3.3816,-3.3855,-3.3853,-3.3855,-3.3633,-3.3607,-3.3874,-3.3874,-3.3874,-3.3874,-3.3874,-3.3874,-3.3526,-3.3623,-3.3604,-3.3708,-3.3708,-3.3776,-3.3795,-3.3817,-3.383,-3.3911,-3.3955,-3.3947,-3.3954,-3.4004,-3.4052,-3.4047,-3.407,-3.4119,-3.4107,-3.39,-3.387,-3.3842,-3.3817,-3.4124,-3.4124,-3.4324,-3.4326,-3.4327]},{"header":{"parameterUnit":"m.s-1","parameterCategory":1,"la1":30.2991,"la2":30.254,"lo1":-89.0895,"lo2":-89.0444,"dy":0.0017,"dx":0.0017,"nx":28,"ny":28,"refTime":"2025-01-15T09:00:00:Z","depth":0,"parameterNumber":3,"parameterNumberName":"V-component_of_WINDS"},"data":[0,0,0,0,0,0,0,0,0,0,0,0,0,0,0,0,0,0,0,0,0,0,0,0,0,0,0,0,0,0,0,0,0,0,0,0,0,0,0,0,0,0,0,0,0,0,0,0,0,0,0,0,0,0,0,0,0,0,-2.1093,-2.1093,0,-2.1029,-2.1028,-2.1028,-2.0968,-2.0967,-2.0966,-2.0966,-2.0898,-2.0897,-2.0895,0,0,0,0,0,0,0,0,0,0,0,0,0,-2.1162,-2.1161,-2.1094,-2.1093,-2.1092,-2.1029,-2.1028,-2.1027,-2.0968,-2.0967,-2.0966,-2.0965,-2.0898,-2.0897,-2.0895,0,0,0,0,0,0,0,0,0,0,0,0,0,-2.1118,-2.1161,-2.1094,-2.1055,-2.1051,-2.1029,-2.1028,-2.1027,-2.0968,-2.0967,-2.0966,-2.0965,-2.0898,-2.0897,-2.0895,-2.0907,0,0,-2.089,-2.0889,0,0,0,0,0,0,0,0,-2.1121,-2.1116,-2.1061,-2.1057,-2.1053,-2.1005,-2.1027,-2.0987,-2.0968,-2.0999,-2.0966,-2.0964,-2.0934,-2.093,-2.092,-2.0903,-2.0901,-2.089,-2.0889,-2.0888,-2.0888,0,0,0,0,0,0,0,-2.1124,-2.1118,-2.1068,-2.1061,-2.1055,-2.1039,-2.1032,-2.1019,-2.0974,-2.0997,-2.0992,-2.0985,-2.0932,-2.0922,-2.0918,-2.09,-2.089,-2.0888,-2.0887,-2.0887,-2.0887,-2.0888,0,0,0,0,0,0,-2.1133,-2.1121,-2.107,-2.1066,-2.1085,-2.1039,-2.1031,-2.1022,-2.0974,-2.0965,-2.0986,-2.0983,-2.0925,-2.092,-2.0915,-2.0924,-2.0888,-2.0887,-2.0886,-2.0886,-2.0888,-2.0889,0,0,0,0,0,0,-2.1135,-2.1129,-2.1073,-2.1092,-2.1084,-2.1039,-2.1029,-2.1021,-2.1011,-2.0966,-2.0957,-2.0985,-2.0924,-2.0918,-2.0909,-2.0921,-2.0886,-2.0884,-2.0885,-2.0887,-2.0888,-2.0944,0,0,0,0,0,0,-2.1137,-2.113,-2.1135,-2.1093,-2.1083,-2.1069,-2.103,-2.1021,-2.1008,-2.1003,-2.0962,-2.0954,-2.0923,-2.0912,-2.0907,-2.0918,-2.0883,-2.0884,-2.0886,-2.0888,-2.0941,-2.0947,-2.0953,0,0,0,0,0,-2.114,-2.1153,-2.1136,-2.113,-2.1088,-2.107,-2.1064,-2.1028,-2.101,-2.1013,-2.0984,-2.0956,-2.0921,-2.0911,-2.0906,-2.0917,-2.0883,-2.0885,-2.0888,-2.0938,-2.0946,-2.0953,0,0,0,0,0,0,-2.1198,-2.1147,-2.1127,-2.1127,-2.1103,-2.106,-2.1063,-2.1037,-2.1017,-2.1013,-2.0969,-2.096,-2.0956,-2.0935,-2.0926,-2.0924,-2.0898,-2.0899,-2.0938,-2.0945,-2.0951,-2.0956,-2.0881,0,0,0,0,0,-2.121,-2.12,-2.1156,-2.1161,-2.115,-2.1109,-2.1099,-2.1073,-2.1046,-2.1036,-2.1006,-2.098,-2.0963,-2.0953,-2.0935,-2.0937,-2.0927,-2.0942,-2.0948,-2.0953,-2.0954,-2.0953,-2.0958,-2.0896,-2.0896,-2.0896,0,0,-2.1237,-2.1208,-2.1204,-2.1171,-2.115,-2.1139,-2.11,-2.1091,-2.1083,-2.1034,-2.1024,-2.1001,-2.0969,-2.0966,-2.0963,-2.0949,-2.0969,-2.0956,-2.096,-2.0959,-2.0956,-2.0962,-2.0967,-2.0898,-2.0898,-2.0897,0,0,-2.1279,-2.1257,-2.1257,-2.1236,-2.1204,-2.1176,-2.1177,-2.1136,-2.112,-2.1109,-2.1072,-2.106,-2.1033,-2.1011,-2.0996,-2.1029,-2.1001,-2.1024,-2.1055,-2.1054,-2.1059,-2.1063,-2.1074,-2.1079,-2.1026,-2.1026,-2.1026,0,-2.1315,-2.1299,-2.1261,-2.1253,-2.1239,-2.1195,-2.1195,-2.1176,-2.1139,-2.113,-2.1115,-2.1078,-2.1053,-2.1044,-2.1052,-2.1042,-2.1039,-2.1029,-2.1062,-2.1065,-2.1069,-2.1078,-2.1083,-2.1029,-2.1029,-2.1029,-2.1028,0,-2.1345,-2.1334,-2.1338,-2.1304,-2.1291,-2.1287,-2.1247,-2.1238,-2.1213,-2.1187,-2.1176,-2.1144,-2.1119,-2.1114,-2.109,-2.1101,-2.1093,-2.107,-2.1043,-2.1078,-2.1087,-2.109,-2.1033,-2.1032,-2.1032,-2.1031,0,0,-2.1422,-2.1367,-2.1369,-2.1352,-2.1313,-2.1303,-2.1297,-2.1272,-2.1264,-2.124,-2.1233,-2.121,-2.1188,-2.1172,-2.1144,-2.1143,-2.117,-2.112,-2.1119,-2.113,-2.1179,-2.1196,-2.1201,-2.1151,-2.1152,-2.1152,-2.1181,0,-2.1457,-2.1444,-2.1409,-2.1406,-2.1395,-2.1352,-2.1346,-2.1321,-2.1296,-2.1282,-2.1253,-2.1237,-2.1211,-2.12,-2.1197,-2.1167,-2.1179,-2.1165,-2.1143,-2.1143,-2.1152,-2.1205,-2.1224,-2.1253,-2.1184,-2.1185,-2.1185,0,-2.1497,-2.1476,-2.1472,-2.1432,-2.1426,-2.1422,-2.1396,-2.1383,-2.1353,-2.1334,-2.1316,-2.1285,-2.1274,-2.1249,-2.1233,-2.1224,-2.1213,-2.1197,-2.1197,-2.1193,-2.1166,-2.1203,-2.1261,-2.1265,-2.119,-2.119,-2.1189,0,-2.1553,-2.1524,-2.1517,-2.1505,-2.1458,-2.1456,-2.1436,-2.1405,-2.1392,-2.1368,-2.1359,-2.1335,-2.1322,-2.1303,-2.1266,-2.1251,-2.1254,-2.1226,-2.1237,-2.1238,-2.124,-2.124,-2.1297,-2.1234,-2.1234,-2.1233,-2.1233,0,-2.1596,-2.1595,-2.1542,-2.1538,-2.1535,-2.1494,-2.1492,-2.1468,-2.144,-2.143,-2.1391,-2.1382,-2.1334,-2.1319,-2.129,-2.1281,-2.1275,-2.1259,-2.1251,-2.1263,-2.1265,-2.1254,-2.1251,-2.1235,-2.1234,-2.1234,-2.1234,0,-2.1658,-2.1623,-2.1613,-2.1569,-2.1558,-2.1558,-2.152,-2.1514,-2.1487,-2.1474,-2.1469,-2.1425,-2.1405,-2.1367,-2.1336,-2.1316,-2.1313,-2.13,-2.1324,-2.1319,-2.1332,-2.1332,-2.1384,-2.1389,-2.1323,-2.1324,-2.1325,0,-2.1688,-2.1686,-2.1643,-2.1634,-2.1616,-2.1601,-2.1588,-2.1546,-2.1534,-2.1498,-2.1496,-2.1474,-2.1453,-2.1423,-2.1388,-2.1364,-2.1349,-2.1369,-2.1346,-2.1356,-2.1349,-2.1349,-2.1348,-2.1375,-2.1376,-2.1377,-2.1377,0,-2.1744,-2.1726,-2.1709,-2.1685,-2.167,-2.1649,-2.1626,-2.162,-2.1574,-2.1561,-2.1541,-2.1525,-2.1494,-2.1471,-2.1442,-2.142,-2.139,-2.1385,-2.1386,-2.1398,-2.1411,-2.1403,-2.1338,-2.1384,-2.1383,-2.1383,-2.1383,-2.1382,-2.179,-2.1787,-2.1755,-2.1737,-2.1715,-2.1694,-2.1686,-2.1657,-2.164,-2.1612,-2.1588,-2.1569,-2.1537,-2.1495,-2.1475,-2.1459,-2.1445,-2.1447,-2.1447,-2.1448,-2.1453,-2.1414,-2.1453,-2.1453,-2.1453,-2.1453,-2.1452,0,-2.1844,-2.1822,-2.1805,-2.1774,-2.1759,-2.1733,-2.1706,-2.1695,-2.168,-2.1653,-2.1633,-2.1609,-2.1587,-2.155,-2.1524,-2.1518,-2.1504,-2.1513,-2.1512,-2.1508,-2.1467,-2.1468,-2.1524,-2.1524,-2.1524,-2.1524,-2.1524,-2.1524,-2.187,-2.1862,-2.1841,-2.1821,-2.1798,-2.178,-2.1766,-2.1746,-2.1724,-2.17,-2.1681,-2.1657,-2.1625,-2.1597,-2.1575,-2.1564,-2.1556,-2.1569,-2.1555,-2.1517,-2.1511,-2.1504,-2.1505,-2.1568,-2.1568,-2.1596,-2.1597,-2.1597]}]]